Location: Dammartin
(48.9032°N, 1.6195°E)
Time: 19:12:33
(UTC+00:00)

BlueWalker 3 - Pass Details

Date: 23 April 2024
Orbit: 482 x 494 km, 53.2° (Epoch: 22 May)

Event Time Altitude Azimuth Distance (km) Brightness Sun altitude
Rises 23:25:16 0° 295° (WNW) 2,585 6.0 -27.9°
Reaches altitude 10° 23:27:27 10° 294° (WNW) 1,701 5.0 -27.9°
Enters shadow 23:28:08 15° 294° (WNW) 1,430 4.5 -27.9°
